User: anonymous   Login
Location: Bothwell
(41.7170°N, 112.2589°W)
Time: 12:55:09
(UTC+00:00)
Language:

BlueWalker 3 - Orbit

View from above orbital plane
View from above orbital plane
View from above satellite
View from above satellite

Ground track
Ground track

The orbit is defined by the following mean orbital elements,

1 53807U          26137.83392079 +.00000000 +00000-0 +11478-3 0 00000
2 53807  53.2277 176.4267 0007407  81.3185 278.8658 15.37870657    01
Epoch (UTC): 17 May 2026 20:00:50
Eccentricity: 0.0007407
inclination: 53.2277°
perigee height: 447 km
apogee height: 457 km
right ascension of ascending node: 176.4267°
argument of perigee: 81.3185°
revolutions per day: 15.37870657
mean anomaly at epoch: 278.8658°

The dashed part of the orbit path shows where the satellite is in the earth's shadow,  

DLR